Location: Unspecified
(0.0000°N, 0.0000°E)
Time: 11:19:32
(UTC+00:00)

Courier 1B Rocket - Pass Details

Date: 28 November 2019
Orbit: 920 x 1202 km, 28.2° (Epoch: 13 December)

Event Time Altitude Azimuth Distance (km) Brightness Sun altitude
Rises 16:40:04 0° 323° (NW) 3,800 8.3 15.8°
Reaches altitude 10° 16:43:25 10° 338° (NNW) 2,900 7.5 15.0°
Maximum altitude 16:48:46 22° 27° (NNE) 2,204 6.5 13.8°
Drops below altitude 10° 16:54:22 10° 75° (ENE) 3,050 7.0 12.5°
Sets 16:57:59 0° 90° (E) 4,049 7.6 11.6°
